• MPC Preparation (Info)

  • MPEC 2014-E09 : 2014 DM23

    The following Minor Planet Electronic Circular may be linked-to from your own Web pages, but must not otherwise be redistributed electronically.

    A form allowing access to any MPEC is at the bottom of this page.


    Read MPEC 2014-E08 Read MPEC 2014-E10


    M.P.E.C. 2014-E09                                Issued 2014 Mar. 1, 02:51 UT
    
         The Minor Planet Electronic Circulars contain information on unusual
             minor planets and routine data on comets.  They are published
       on behalf of Commission 20 of the International Astronomical Union by the
              Minor Planet Center, Smithsonian Astrophysical Observatory,
                              Cambridge, MA 02138, U.S.A.
    
                 Prepared using the Tamkin Foundation Computer Network
    
                                  MPC@CFA.HARVARD.EDU
                URL https://www.minorplanetcenter.net/    ISSN 1523-6714
    
                                       2014 DM23
    
    Observations:
         K14D23M* C2014 02 27.48924 12 37 07.448+05 51 41.50         20.9 wLEE009F51
         K14D23M  C2014 02 27.50150 12 37 08.469+05 50 44.10         20.6 wLEE009F51
         K14D23M  C2014 02 27.51381 12 37 09.456+05 49 45.54         20.8 wLEE009F51
         K14D23M KC2014 02 28.35602312 38 48.20 +04 42 01.3          20.9 VcEE009H21
         K14D23M KC2014 02 28.35838612 38 48.44 +04 41 50.3          20.8 VcEE009H21
         K14D23M KC2014 02 28.36546312 38 49.07 +04 41 16.1          20.8 VcEE009H21
         K14D23M KC2014 02 28.37277612 38 49.67 +04 40 40.4          20.9 VcEE009H21
         K14D23M KC2014 02 28.37537712 38 49.91 +04 40 27.4          21.0 VcEE009H21
    
    Observer details:
    F51 Pan-STARRS 1, Haleakala.  Observers N. Primak, A. Schultz, T. Goggia,
        M. Willman.  Measurer PS1 Science Consortium.  1.8-m Ritchey-Chretien
        + CCD.
    H21 Astronomical Research Observatory, Westfield.  Observer R. Holmes.
        Measurers S. Foglia, L. Buzzi, H. Devore, T. Linder, T. Lister,
        T. Vorobjov.  0.61-m f/4.0 astrograph + CCD.
    
    Orbital elements:
    2014 DM23                                                Earth MOID = 0.0699 AU
    Epoch 2013 Nov. 4.0 TT = JDT 2456600.5                  MPC
    M 279.97678              (2000.0)            P               Q
    n   0.61256030     Peri.  187.20522     -0.99716227     -0.07263251
    a   1.3731042      Node   348.57306     +0.07309160     -0.87109231
    e   0.2243923      Incl.    5.73495     +0.01802869     -0.48571875
    P   1.61           H   24.6           G   0.15           U   8
    Residuals in seconds of arc
    140227 F51  0.1-  0.2-    140228 H21  0.4-  0.4-    140228 H21  0.2-  0.2+
    140227 F51  0.2+  0.3+    140228 H21  0.1+  0.1+    140228 H21  0.0   0.2-
    140227 F51  0.1-  0.1-    140228 H21  0.4+  0.3+
    
    Ephemeris:
    2014 DM23                a,e,i = 1.37, 0.22, 6                   q = 1.0650
    Date    TT    R. A. (2000) Decl.     Delta      r     Elong.  Phase     V
    2014 01 30    11 33 39.0 +27 47 13   0.1642  1.1174   141.0    33.7    22.3
    ...
    2014 02 14    12 08 22.9 +19 46 27   0.1192  1.0883   146.0    30.4    21.5
    ...
    2014 02 22    12 25 49.9 +12 26 23   0.1012  1.0773   149.1    28.1    21.0
    ...
    2014 02 28    12 38 06.8 +05 11 38   0.09097 1.0712   151.2    26.4    20.7
    2014 03 01    12 40 04.5 +03 50 28   0.08957 1.0704   151.5    26.2    20.7
    2014 03 02    12 42 00.7 +02 26 59   0.08826 1.0696   151.8    26.0    20.7
    ...
    2014 03 08    12 53 06.7 -06 34 56   0.08243 1.0662   152.4    25.6    20.5
    ...
    2014 03 16    13 06 28.5 -19 26 03   0.08017 1.0649   150.2    27.6    20.5
    ...
    2014 03 31    13 25 28.7 -39 21 17   0.09060 1.0726   142.9    34.2    21.0
    
    A. U. Tomatic                (C) Copyright 2014 MPC           M.P.E.C. 2014-E09
    

    Read MPEC 2014-E08 Read MPEC 2014-E10


    MPEC number:

    Enter an MPEC number in one of the following forms:

    • 1997-B01 (the full form)
    • J97B01 (the packed version of the full form)
    • B01 (the abbreviated form)